Skip Page Navigation
NASA JPL Caltech
NASA Logo - Jet Propulsion Laboratory + View the NASA Portal
+ Near-Earth Object (NEO) Program
Search JPL
JPL Home Earth Solar System Stars & Galaxies Technology
JPL Solar System Dynamics
BODIES ORBITS EPHEMERIDES TOOLS PHYSICAL DATA DISCOVERY FAQ SITE MAP
JPL Small-Body Database Browser
Search: [ help ]  
5408 The (1232 T-1)
Classification: Main-belt Asteroid          SPK-ID: 2005408
Ephemeris | Orbit Diagram | Orbital Elements | Physical Parameters | Discovery Circumstances | Close-Approach Data ]

[ show orbit diagram ]
Orbital Elements at Epoch 2456800.5 (2014-May-23.0) TDB
Reference: JPL 9 (heliocentric ecliptic J2000)
 Element Value Uncertainty (1-sigma)   Units 
e .1391306545412611 7.2302e-08  
a 2.260636284911295 9.298e-09 AU
q 1.946112478911862 1.6279e-07 AU
i 4.080253277807514 7.968e-06 deg
node 207.2470755215599 6.7799e-05 deg
peri 341.6949233657989 7.0764e-05 deg
M 246.0397934226727 2.1074e-05 deg
tp 2457193.502393200194
(2015-Jun-20.00239320)
7.3527e-05 JED
period 1241.493551137682
3.40
7.6594e-06
2.097e-08
d
yr
n .2899733145372382 1.789e-09 deg/d
Q 2.575160090910729 1.0592e-08 AU
  Orbit Determination Parameters
   # obs. used (total)      1170  
   data-arc span      21879 days (59.90 yr)  
   first obs. used      1954-03-06  
   last obs. used      2014-01-29  
   planetary ephem.      DE431  
   SB-pert. ephem.      SB431-BIG16  
   condition code      0  
   fit RMS      .51139  
   data source      ORB  
   producer      Otto Matic  
   solution date      2014-Feb-19 18:02:17  

Additional Information
 Earth MOID = .947387 AU 
 T_jup = 3.604 
[ show covariance matrix ]

Ephemeris | Orbit Diagram | Orbital Elements | Physical Parameters | Discovery Circumstances | Close-Approach Data ]

Physical Parameter Table
Parameter Symbol Value Units Sigma Reference Notes
absolute magnitude H 13.6 mag n/a MPO265986  

5408 The (1232 T-1)          Discovered 1971-Mar-25 by van Houten and Gehrels at Palomar (675)
Reference: DISCOVERY.DBLast Updated: 2003-08-29

[ show close-approach data ]
Alternate Designations
 1232 T-1 = 1954 EL = 1978 JA2 = 1986 UP2 = 1988 GA 
Ephemeris | Orbit Diagram | Orbital Elements | Physical Parameters | Discovery Circumstances | Close-Approach Data ]
ABOUT SSD CREDITS/AWARDS PRIVACY/COPYRIGHT GLOSSARY LINKS
FirstGov 2014-Apr-25 06:42 UT
(server date/time)  
NASA Home Page
Site Manager:   Donald K. Yeomans
Webmaster  Alan B. Chamberlin